Mayak (42830 NORAD) Tracking and Keplerian Element Data

This shows tracking and keplerian element data for the satellite.

Feedback or suggestion? Click here.




ElementValue
Catalog42830
NameMayak
Epoch Orbit3642
Epoch Day74.83238994
Epoch Year2018
RAAN340.7617
Inclination97.6054
Eccentricity0.0015116
Argument of Perigee142.2366
Mean Anonmoly217.9917
Mean Motion14.91153695
Decay Rate7.97E-06
L11 42830U 17042F 18074.83238994 .00000797 00000-0 85623-4 0 9998
L22 42830 97.6054 340.7617 0015116 142.2366 217.9917 14.91153695 36421

Live tracking and technical data element details for Mayak (NORAD 42830). Mayak can be tracked NOW for your location showing map with azimuth and elevation plus other details from your city location.

Track the satellite on the map from your city or location and see movement details for azimuth, elevation, latitude, longitude, range, height, and movement on the map or in text.







IsCatalogInMostPopularTable: catalog: 42830, numindb: 125
Update: records affected: 1



GetName: 42830 Mayak

Hit Count: updated at: Mon, 19 Nov 2018 14:30:14 GMT